HB9CFB-10 Weather Reports


time (UTC)temp
C
wind
direction
speed
KPH
gust
KPH
rain 1hr
cm
rain 24hr
cm
rain mn
cm
humidity
%
barometer
mb
20260505171843 -17 0.0 0.0 0.00 0.00 0.00 36 1007.3
20260505171343 -17 0.0 0.0 0.00 0.00 0.00 36 1007.3
20260505170843 -17 0.0 0.0 0.00 0.00 0.00 35 1007.3
20260505170343 -17 0.0 0.0 0.00 0.00 0.00 35 1007.4
20260505165843 -17 0.0 0.0 0.00 0.00 0.00 35 1007.3
20260505165343 -17 0.0 0.0 0.00 0.00 0.00 35 1007.4
20260505164843 -17 0.0 0.0 0.00 0.00 0.00 35 1007.4
20260505164343 -17 0.0 0.0 0.00 0.00 0.00 35 1007.3
20260505163843 -17 0.0 0.0 0.00 0.00 0.00 35 1007.2
20260505163343 -17 0.0 0.0 0.00 0.00 0.00 35 1007.3
20260505162843 -17 0.0 0.0 0.00 0.00 0.00 35 1007.1
20260505162343 -17 0.0 0.0 0.00 0.00 0.00 35 1007.1
20260505161843 -17 0.0 0.0 0.00 0.00 0.00 35 1007.2
20260505161343 -17 0.0 0.0 0.00 0.00 0.00 35 1007.0
20260505160843 -17 0.0 0.0 0.00 0.00 0.00 34 1007.0
20260505160343 -17 0.0 0.0 0.00 0.00 0.00 34 1007.0
20260505153343 -17 0.0 0.0 0.00 0.00 0.00 33 1006.4
20260505152843 -17 0.0 0.0 0.00 0.00 0.00 33 1006.6
20260505152343 -17 0.0 0.0 0.00 0.00 0.00 33 1006.5
20260505151843 -17 0.0 0.0 0.00 0.00 0.00 33 1006.3
20260505151343 -17 0.0 0.0 0.00 0.00 0.00 33 1006.4
20260505150843 -17 0.0 0.0 0.00 0.00 0.00 33 1006.4
20260505150343 -17 0.0 0.0 0.00 0.00 0.00 33 1006.3
20260505140343 -17 0.0 0.0 0.00 0.00 0.00 31 1005.9
20260505124843 -17 0.0 0.0 0.00 0.00 0.00 27 1007.2
20260505124343 -17 0.0 0.0 0.00 0.00 0.00 31 1007.2
20260505123843 -17 0.0 0.0 0.00 0.00 0.00 32 1007.2
20260505123343 -17 0.0 0.0 0.00 0.00 0.00 32 1007.2
20260505122843 -17 0.0 0.0 0.00 0.00 0.00 32 1007.2
20260505122343 -17 0.0 0.0 0.00 0.00 0.00 32 1007.3
20260505121843 -17 0.0 0.0 0.00 0.00 0.00 31 1007.3
20260505121343 -17 0.0 0.0 0.00 0.00 0.00 31 1007.3
20260505120843 -17 0.0 0.0 0.00 0.00 0.00 32 1007.4
20260505120343 -17 0.0 0.0 0.00 0.00 0.00 32 1007.4
20260505115843 -17 0.0 0.0 0.00 0.00 0.00 32 1007.5
20260505115343 -17 0.0 0.0 0.00 0.00 0.00 32 1007.5
20260505114843 -17 0.0 0.0 0.00 0.00 0.00 32 1007.4
20260505114343 -17 0.0 0.0 0.00 0.00 0.00 33 1007.4
20260505113843 -17 0.0 0.0 0.00 0.00 0.00 33 1007.5
20260505113343 -17 0.0 0.0 0.00 0.00 0.00 33 1007.5
20260505112843 -17 0.0 0.0 0.00 0.00 0.00 33 1007.5
20260505112343 -17 0.0 0.0 0.00 0.00 0.00 33 1007.6
20260505111843 -17 0.0 0.0 0.00 0.00 0.00 32 1007.6
20260505111343 -17 0.0 0.0 0.00 0.00 0.00 33 1007.7
20260505110843 -17 0.0 0.0 0.00 0.00 0.00 33 1007.7
20260505110343 -17 0.0 0.0 0.00 0.00 0.00 33 1007.7
20260505101843 -17 0.0 0.0 0.00 0.00 0.00 33 1007.9
20260505101343 -17 0.0 0.0 0.00 0.00 0.00 33 1008.0
20260505100843 -17 0.0 0.0 0.00 0.00 0.00 33 1008.0
20260505100343 -17 0.0 0.0 0.00 0.00 0.00 33 1008.1
20260505095843 -17 0.0 0.0 0.00 0.00 0.00 33 1008.1
20260505095343 -17 0.0 0.0 0.00 0.00 0.00 33 1008.2
20260505094843 -17 0.0 0.0 0.00 0.00 0.00 33 1008.3
20260505094343 -17 0.0 0.0 0.00 0.00 0.00 32 1008.2
20260505093843 -17 0.0 0.0 0.00 0.00 0.00 32 1008.2
20260505093343 -17 0.0 0.0 0.00 0.00 0.00 32 1008.3
20260505092843 -17 0.0 0.0 0.00 0.00 0.00 32 1008.4
20260505092343 -17 0.0 0.0 0.00 0.00 0.00 34 1008.5
20260505091843 -17 0.0 0.0 0.00 0.00 0.00 34 1008.6
20260505091343 -17 0.0 0.0 0.00 0.00 0.00 34 1008.7
20260505090843 -17 0.0 0.0 0.00 0.00 0.00 35 1008.7
20260505090343 -17 0.0 0.0 0.00 0.00 0.00 35 1008.7
20260505085843 -17 0.0 0.0 0.00 0.00 0.00 36 1008.7
20260505085343 -17 0.0 0.0 0.00 0.00 0.00 36 1008.6
20260505084843 -17 0.0 0.0 0.00 0.00 0.00 36 1008.7
20260505084343 -17 0.0 0.0 0.00 0.00 0.00 36 1008.8
20260505083843 -17 0.0 0.0 0.00 0.00 0.00 36 1008.8
20260505083343 -17 0.0 0.0 0.00 0.00 0.00 36 1008.8
20260505082843 -17 0.0 0.0 0.00 0.00 0.00 37 1008.8
20260505082343 -17 0.0 0.0 0.00 0.00 0.00 37 1008.9
20260505081843 -17 0.0 0.0 0.00 0.00 0.00 37 1008.9
20260505081343 -17 0.0 0.0 0.00 0.00 0.00 37 1008.9
20260505080843 -17 0.0 0.0 0.00 0.00 0.00 37 1008.9
20260505080343 -17 0.0 0.0 0.00 0.00 0.00 37 1008.9
20260505075843 -17 0.0 0.0 0.00 0.00 0.00 37 1009.0
20260505075343 -17 0.0 0.0 0.00 0.00 0.00 37 1008.9
20260505074843 -17 0.0 0.0 0.00 0.00 0.00 37 1008.9
20260505074343 -17 0.0 0.0 0.00 0.00 0.00 37 1009.0
20260505073843 -17 0.0 0.0 0.00 0.00 0.00 37 1009.2
20260505073343 -17 0.0 0.0 0.00 0.00 0.00 37 1009.1
20260505072843 -17 0.0 0.0 0.00 0.00 0.00 37 1009.1
20260505072343 -17 0.0 0.0 0.00 0.00 0.00 37 1009.1
20260505071843 -17 0.0 0.0 0.00 0.00 0.00 37 1009.2
20260505071343 -17 0.0 0.0 0.00 0.00 0.00 37 1009.3
20260505070843 -17 0.0 0.0 0.00 0.00 0.00 37 1009.3
20260505070343 -17 0.0 0.0 0.00 0.00 0.00 38 1009.2
20260505065843 -17 0.0 0.0 0.00 0.00 0.00 38 1009.0
20260505065343 -17 0.0 0.0 0.00 0.00 0.00 38 1009.2
20260505064843 -17 0.0 0.0 0.00 0.00 0.00 38 1009.1
20260505064343 -17 0.0 0.0 0.00 0.00 0.00 38 1009.1
20260505063843 -17 0.0 0.0 0.00 0.00 0.00 38 1009.2
20260505063343 -17 0.0 0.0 0.00 0.00 0.00 38 1009.2
20260505062843 -17 0.0 0.0 0.00 0.00 0.00 38 1009.4
20260505062343 -17 0.0 0.0 0.00 0.00 0.00 38 1009.3
20260505061843 -17 0.0 0.0 0.00 0.00 0.00 38 1009.4
20260505061343 -17 0.0 0.0 0.00 0.00 0.00 38 1009.4
20260505060843 -17 0.0 0.0 0.00 0.00 0.00 38 1009.3
20260505060343 -17 0.0 0.0 0.00 0.00 0.00 38 1009.4
20260505055843 -17 0.0 0.0 0.00 0.00 0.00 38 1009.3
20260505055343 -17 0.0 0.0 0.00 0.00 0.00 38 1009.2
20260505054843 -17 0.0 0.0 0.00 0.00 0.00 38 1009.3
20260505054343 -17 0.0 0.0 0.00 0.00 0.00 38 1009.2
20260505053843 -17 0.0 0.0 0.00 0.00 0.00 38 1009.2
20260505053343 -17 0.0 0.0 0.00 0.00 0.00 38 1009.0
20260505052843 -17 0.0 0.0 0.00 0.00 0.00 38 1009.0
20260505052343 -17 0.0 0.0 0.00 0.00 0.00 38 1008.9
20260505051843 -17 0.0 0.0 0.00 0.00 0.00 38 1009.0
20260505051343 -17 0.0 0.0 0.00 0.00 0.00 38 1008.9
20260505050843 -17 0.0 0.0 0.00 0.00 0.00 38 1009.0
20260505050343 -17 0.0 0.0 0.00 0.00 0.00 38 1008.9
20260505041343 -17 0.0 0.0 0.00 0.00 0.00 38 1009.2
20260505040843 -17 0.0 0.0 0.00 0.00 0.00 38 1009.3
20260505040343 -17 0.0 0.0 0.00 0.00 0.00 38 1009.2
20260505035843 -17 0.0 0.0 0.00 0.00 0.00 38 1009.3
20260505035343 -17 0.0 0.0 0.00 0.00 0.00 38 1009.2
20260505034843 -17 0.0 0.0 0.00 0.00 0.00 38 1009.2
20260505034343 -17 0.0 0.0 0.00 0.00 0.00 38 1009.2
20260505033843 -17 0.0 0.0 0.00 0.00 0.00 38 1009.3
20260505033343 -17 0.0 0.0 0.00 0.00 0.00 38 1009.1
20260505032843 -17 0.0 0.0 0.00 0.00 0.00 38 1009.1
20260505032343 -17 0.0 0.0 0.00 0.00 0.00 38 1009.3
20260505031843 -17 0.0 0.0 0.00 0.00 0.00 38 1009.4
20260505031343 -17 0.0 0.0 0.00 0.00 0.00 38 1009.6
20260505030843 -17 0.0 0.0 0.00 0.00 0.00 38 1009.6
20260505030343 -17 0.0 0.0 0.00 0.00 0.00 38 1009.7
20260505025843 -17 0.0 0.0 0.00 0.00 0.00 38 1009.7
20260505025343 -17 0.0 0.0 0.00 0.00 0.00 38 1009.6
20260505024843 -17 0.0 0.0 0.00 0.00 0.00 38 1009.8
20260505024343 -17 0.0 0.0 0.00 0.00 0.00 38 1010.0
20260505023843 -17 0.0 0.0 0.00 0.00 0.00 38 1010.1
20260505023343 -17 0.0 0.0 0.00 0.00 0.00 38 1010.2
20260505022843 -17 0.0 0.0 0.00 0.00 0.00 38 1010.2
20260505022343 -17 0.0 0.0 0.00 0.00 0.00 38 1010.3
20260505021843 -17 0.0 0.0 0.00 0.00 0.00 38 1010.3
20260505021343 -17 0.0 0.0 0.00 0.00 0.00 38 1010.3
20260505020843 -17 0.0 0.0 0.00 0.00 0.00 38 1010.5
20260505020343 -17 0.0 0.0 0.00 0.00 0.00 38 1010.3
20260505015843 -17 0.0 0.0 0.00 0.00 0.00 38 1010.4
20260505015343 -17 0.0 0.0 0.00 0.00 0.00 38 1010.3
20260505014843 -17 0.0 0.0 0.00 0.00 0.00 38 1010.4
20260505014343 -17 0.0 0.0 0.00 0.00 0.00 38 1010.4
20260505013843 -17 0.0 0.0 0.00 0.00 0.00 38 1010.4
20260505013343 -17 0.0 0.0 0.00 0.00 0.00 38 1010.6
20260505012843 -17 0.0 0.0 0.00 0.00 0.00 38 1010.6
20260505012343 -17 0.0 0.0 0.00 0.00 0.00 38 1010.7
20260505011843 -17 0.0 0.0 0.00 0.00 0.00 38 1010.9
20260505011343 -17 0.0 0.0 0.00 0.00 0.00 38 1010.9
20260505010843 -17 0.0 0.0 0.00 0.00 0.00 38 1011.0
20260505010343 -17 0.0 0.0 0.00 0.00 0.00 38 1011.0
20260505005843 -17 0.0 0.0 0.00 0.00 0.00 38 1011.1
20260505005343 -17 0.0 0.0 0.00 0.00 0.00 38 1011.3
20260505004843 -17 0.0 0.0 0.00 0.00 0.00 38 1011.3
20260505004343 -17 0.0 0.0 0.00 0.00 0.00 38 1011.4
20260505003843 -17 0.0 0.0 0.00 0.00 0.00 38 1011.5
20260505003343 -17 0.0 0.0 0.00 0.00 0.00 38 1011.6
20260505002843 -17 0.0 0.0 0.00 0.00 0.00 38 1011.7
20260505002343 -17 0.0 0.0 0.00 0.00 0.00 38 1011.9
20260505001843 -17 0.0 0.0 0.00 0.00 0.00 38 1011.9
20260505001344 -17 0.0 0.0 0.00 0.00 0.00 38 1011.9
20260505000843 -17 0.0 0.0 0.00 0.00 0.00 38 1012.0
20260505000343 -17 0.0 0.0 0.00 0.00 0.00 38 1012.0
20260504235843 -17 0.0 0.0 0.00 0.00 0.00 38 1012.1
20260504235343 -17 0.0 0.0 0.00 0.00 0.00 38 1012.3
20260504234843 -17 0.0 0.0 0.00 0.00 0.00 38 1012.3
20260504234343 -17 0.0 0.0 0.00 0.00 0.00 38 1012.5
20260504233843 -17 0.0 0.0 0.00 0.00 0.00 38 1012.6
20260504233343 -17 0.0 0.0 0.00 0.00 0.00 38 1012.7
20260504232843 -17 0.0 0.0 0.00 0.00 0.00 38 1012.7
20260504232343 -17 0.0 0.0 0.00 0.00 0.00 38 1012.8
20260504231843 -17 0.0 0.0 0.00 0.00 0.00 38 1013.0
20260504231343 -17 0.0 0.0 0.00 0.00 0.00 38 1013.0
20260504230843 -17 0.0 0.0 0.00 0.00 0.00 38 1013.0
20260504230343 -17 0.0 0.0 0.00 0.00 0.00 38 1012.9
20260504225843 -17 0.0 0.0 0.00 0.00 0.00 38 1012.9
20260504225343 -17 0.0 0.0 0.00 0.00 0.00 38 1012.9
20260504224843 -17 0.0 0.0 0.00 0.00 0.00 38 1012.8
20260504224343 -17 0.0 0.0 0.00 0.00 0.00 38 1012.9
20260504223843 -17 0.0 0.0 0.00 0.00 0.00 38 1012.9
20260504223343 -17 0.0 0.0 0.00 0.00 0.00 38 1013.0
20260504222843 -17 0.0 0.0 0.00 0.00 0.00 38 1013.0
20260504222343 -17 0.0 0.0 0.00 0.00 0.00 38 1012.9
20260504221843 -17 0.0 0.0 0.00 0.00 0.00 38 1013.1
20260504221343 -17 0.0 0.0 0.00 0.00 0.00 38 1013.1
20260504220843 -17 0.0 0.0 0.00 0.00 0.00 38 1013.1
20260504220343 -17 0.0 0.0 0.00 0.00 0.00 38 1013.2
20260504215843 -17 0.0 0.0 0.00 0.00 0.00 38 1013.3
20260504215343 -17 0.0 0.0 0.00 0.00 0.00 38 1013.4
20260504214843 -17 0.0 0.0 0.00 0.00 0.00 38 1013.4
20260504214343 -17 0.0 0.0 0.00 0.00 0.00 37 1013.4
20260504213843 -17 0.0 0.0 0.00 0.00 0.00 37 1013.5
20260504213343 -17 0.0 0.0 0.00 0.00 0.00 37 1013.7
20260504212843 -17 0.0 0.0 0.00 0.00 0.00 37 1013.6
20260504212343 -17 0.0 0.0 0.00 0.00 0.00 37 1013.7
20260504211844 -17 0.0 0.0 0.00 0.00 0.00 37 1013.6
20260504211343 -17 0.0 0.0 0.00 0.00 0.00 37 1013.7
20260504210843 -17 0.0 0.0 0.00 0.00 0.00 37 1013.6
20260504210343 -17 0.0 0.0 0.00 0.00 0.00 37 1013.7
20260504205843 -17 0.0 0.0 0.00 0.00 0.00 37 1013.7
20260504205343 -17 0.0 0.0 0.00 0.00 0.00 37 1013.7
20260504204843 -17 0.0 0.0 0.00 0.00 0.00 37 1013.7
20260504204343 -17 0.0 0.0 0.00 0.00 0.00 37 1013.6
20260504203843 -17 0.0 0.0 0.00 0.00 0.00 37 1013.6
20260504203343 -17 0.0 0.0 0.00 0.00 0.00 37 1013.6
20260504202843 -17 0.0 0.0 0.00 0.00 0.00 37 1013.7
20260504202343 -17 0.0 0.0 0.00 0.00 0.00 37 1013.7
20260504201843 -17 0.0 0.0 0.00 0.00 0.00 37 1013.8
20260504201343 -17 0.0 0.0 0.00 0.00 0.00 37 1013.8
20260504200843 -17 0.0 0.0 0.00 0.00 0.00 37 1013.9
20260504200343 -17 0.0 0.0 0.00 0.00 0.00 37 1013.9
20260504195843 -17 0.0 0.0 0.00 0.00 0.00 37 1013.9
20260504195343 -17 0.0 0.0 0.00 0.00 0.00 37 1013.9
20260504194843 -17 0.0 0.0 0.00 0.00 0.00 37 1013.9
20260504194343 -17 0.0 0.0 0.00 0.00 0.00 37 1014.0
20260504193843 -17 0.0 0.0 0.00 0.00 0.00 37 1014.1
20260504193343 -17 0.0 0.0 0.00 0.00 0.00 37 1014.0
20260504192843 -17 0.0 0.0 0.00 0.00 0.00 37 1014.1
20260504192343 -17 0.0 0.0 0.00 0.00 0.00 37 1014.0
20260504191843 -17 0.0 0.0 0.00 0.00 0.00 37 1014.2
20260504191343 -17 0.0 0.0 0.00 0.00 0.00 37 1014.1
20260504190843 -17 0.0 0.0 0.00 0.00 0.00 37 1014.1
20260504190343 -17 0.0 0.0 0.00 0.00 0.00 37 1014.1
20260504185843 -17 0.0 0.0 0.00 0.00 0.00 37 1014.0
20260504185343 -17 0.0 0.0 0.00 0.00 0.00 37 1014.1
20260504184843 -17 0.0 0.0 0.00 0.00 0.00 37 1014.0
20260504184343 -17 0.0 0.0 0.00 0.00 0.00 37 1014.1
20260504183843 -17 0.0 0.0 0.00 0.00 0.00 37 1014.0
20260504183343 -17 0.0 0.0 0.00 0.00 0.00 38 1013.9
20260504182843 -17 0.0 0.0 0.00 0.00 0.00 38 1013.7
20260504182343 -17 0.0 0.0 0.00 0.00 0.00 38 1013.8
20260504181843 -17 0.0 0.0 0.00 0.00 0.00 37 1013.7
20260504181343 -17 0.0 0.0 0.00 0.00 0.00 37 1013.7
20260504180843 -17 0.0 0.0 0.00 0.00 0.00 37 1013.7
20260504180343 -17 0.0 0.0 0.00 0.00 0.00 37 1013.5
20260504175843 -17 0.0 0.0 0.00 0.00 0.00 37 1013.5
20260504175343 -17 0.0 0.0 0.00 0.00 0.00 37 1013.4
20260504174843 -17 0.0 0.0 0.00 0.00 0.00 37 1013.5
20260504174343 -17 0.0 0.0 0.00 0.00 0.00 37 1013.5
20260504173843 -17 0.0 0.0 0.00 0.00 0.00 37 1013.4
20260504173343 -17 0.0 0.0 0.00 0.00 0.00 37 1013.3
20260504172843 -17 0.0 0.0 0.00 0.00 0.00 37 1013.4
20260504172343 -17 0.0 0.0 0.00 0.00 0.00 37 1013.5